{"data":{"norad_id":64838,"epoch":"2026-05-25T04:16:26.759136Z","epoch_age_seconds":55626,"freshness":"FRESH","line1":"1 64838U 25151Y   26145.17808749 -.00006678  00000+0 -84770-3 0  9992","line2":"2 64838  51.9008 314.8441 0000598 101.2901 258.8129 14.79941535 46738","mean_motion":14.79941535,"eccentricity":5.98e-5,"inclination_deg":51.9008,"raan_deg":314.8441,"arg_perigee_deg":101.2901,"mean_anomaly_deg":258.8129,"bstar":-0.0008477,"rev_number":4673,"period_min":97.301141021088,"perigee_km":629.08962921241,"apogee_km":629.92774363651,"semimajor_km":7007.6456864245,"source":"CELESTRAK","updated_at":"2026-05-25T13:38:04.828059Z"}}